[[{"header":{"parameterUnit":"m.s-1","parameterCategory":1,"la1":30.2991,"la2":30.254,"lo1":-89.0895,"lo2":-89.0444,"dy":0.0017,"dx":0.0017,"nx":28,"ny":28,"refTime":"2025-04-20T03:00:00:Z","depth":0,"parameterNumber":2,"parameterNumberName":"U-component_of_WINDS"},"data":[0,0,0,0,0,0,0,0,0,0,0,0,0,0,0,0,0,0,0,0,0,0,0,0,0,0,0,0,0,0,0,0,0,0,0,0,0,0,0,0,0,0,0,0,0,0,0,0,0,0,0,0,0,0,0,0,0,0,-4.8567,-4.8569,0,-4.8691,-4.8692,-4.8693,-4.8677,-4.8675,-4.8673,-4.8671,-4.8793,-4.8798,-4.8803,0,0,0,0,0,0,0,0,0,0,0,0,0,-4.8316,-4.832,-4.8567,-4.8569,-4.857,-4.869,-4.8692,-4.8694,-4.8678,-4.8675,-4.8673,-4.8671,-4.8792,-4.8798,-4.8804,0,0,0,0,0,0,0,0,0,0,0,0,0,-4.843,-4.8322,-4.8567,-4.8577,-4.8579,-4.869,-4.8692,-4.8694,-4.8678,-4.8675,-4.8672,-4.8669,-4.879,-4.8797,-4.8805,-4.8912,0,0,-4.8828,-4.8831,0,0,0,0,0,0,0,0,-4.8424,-4.844,-4.8574,-4.8576,-4.8579,-4.8666,-4.8648,-4.8767,-4.8679,-4.864,-4.8671,-4.8668,-4.8753,-4.8764,-4.8793,-4.8918,-4.8923,-4.8829,-4.8833,-4.8837,-4.8839,0,0,0,0,0,0,0,-4.8416,-4.8434,-4.8616,-4.8576,-4.8579,-4.8574,-4.8587,-4.867,-4.8712,-4.8644,-4.8643,-4.8658,-4.8754,-4.8786,-4.8796,-4.8925,-4.8829,-4.8835,-4.884,-4.8843,-4.9145,-4.9149,0,0,0,0,0,0,-4.8406,-4.8428,-4.8612,-4.862,-4.8493,-4.8581,-4.8596,-4.8641,-4.8711,-4.8719,-4.866,-4.8657,-4.8774,-4.8787,-4.88,-4.8931,-4.8837,-4.8844,-4.8848,-4.9142,-4.9146,-4.915,0,0,0,0,0,0,-4.8401,-4.8423,-4.8607,-4.8524,-4.8547,-4.8589,-4.8639,-4.8645,-4.8677,-4.8724,-4.8731,-4.8685,-4.8772,-4.8789,-4.8885,-4.8935,-4.8847,-4.8854,-4.9138,-4.9143,-4.9148,-4.9193,0,0,0,0,0,0,-4.8393,-4.8421,-4.8462,-4.8525,-4.8551,-4.8691,-4.8643,-4.8649,-4.869,-4.8687,-4.8749,-4.8756,-4.8771,-4.8874,-4.8893,-4.8944,-4.886,-4.9134,-4.914,-4.9146,-4.9187,-4.9199,-4.9209,0,0,0,0,0,-4.8385,-4.8469,-4.8465,-4.8487,-4.8604,-4.8694,-4.8709,-4.8725,-4.8695,-4.8736,-4.8767,-4.8754,-4.8927,-4.8884,-4.8905,-4.8959,-4.913,-4.9138,-4.9146,-4.9182,-4.9197,-4.9209,0,0,0,0,0,0,-4.8409,-4.8477,-4.8473,-4.858,-4.8632,-4.8691,-4.8744,-4.874,-4.8799,-4.8793,-4.881,-4.8824,-4.8921,-4.895,-4.89,-4.9067,-4.9024,-4.9037,-4.9045,-4.9059,-4.907,-4.906,-4.8867,0,0,0,0,0,-4.8428,-4.8495,-4.8551,-4.864,-4.8666,-4.8701,-4.874,-4.8749,-4.8802,-4.8823,-4.886,-4.8911,-4.8977,-4.902,-4.9083,-4.9192,-4.9205,-4.924,-4.9251,-4.926,-4.9269,-4.933,-4.9346,-4.9175,-4.9175,-4.9175,0,0,-4.8465,-4.8511,-4.8552,-4.8646,-4.8687,-4.8756,-4.8719,-4.8793,-4.8844,-4.8834,-4.8927,-4.8956,-4.9014,-4.9118,-4.9165,-4.9144,-4.932,-4.9269,-4.9276,-4.9281,-4.9339,-4.9355,-4.937,-4.918,-4.9179,-4.9179,0,0,-4.8569,-4.8611,-4.869,-4.8732,-4.8795,-4.8818,-4.8837,-4.8898,-4.8918,-4.9012,-4.9006,-4.9067,-4.918,-4.9222,-4.9258,-4.9381,-4.9371,-4.9401,-4.9457,-4.9516,-4.9529,-4.9541,-4.9584,-4.96,-4.9411,-4.9411,-4.9411,0,-4.8607,-4.8712,-4.8731,-4.8807,-4.8848,-4.8844,-4.8925,-4.8964,-4.9044,-4.9072,-4.9049,-4.9192,-4.9231,-4.9344,-4.9374,-4.9404,-4.9426,-4.9392,-4.9526,-4.9538,-4.955,-4.9591,-4.9607,-4.9414,-4.9414,-4.9413,-4.9413,0,-4.8756,-4.8829,-4.8885,-4.8964,-4.9012,-4.909,-4.912,-4.9167,-4.9172,-4.9197,-4.9294,-4.9341,-4.9414,-4.9442,-4.9446,-4.9556,-4.9542,-4.9522,-4.9479,-4.9569,-4.9608,-4.9624,-4.9418,-4.9417,-4.9416,-4.9416,0,0,-4.8875,-4.8966,-4.8987,-4.9023,-4.9094,-4.915,-4.9228,-4.9301,-4.934,-4.9396,-4.9461,-4.9559,-4.9542,-4.9583,-4.9593,-4.9645,-4.9739,-4.9619,-4.9621,-4.9639,-4.9862,-4.9876,-4.9894,-4.9734,-4.9738,-4.974,-4.9857,0,-4.8985,-4.9124,-4.9144,-4.9266,-4.9334,-4.9333,-4.9401,-4.9451,-4.9478,-4.9538,-4.9567,-4.9636,-4.9609,-4.9634,-4.9685,-4.9717,-4.9784,-4.9709,-4.9794,-4.9797,-4.9778,-4.9914,-4.9928,-5.0036,-4.9873,-4.9875,-4.9877,0,-4.9131,-4.9193,-4.9322,-4.9385,-4.9414,-4.9475,-4.9545,-4.9603,-4.9661,-4.9676,-4.9724,-4.9728,-4.9809,-4.9764,-4.9875,-4.9823,-4.986,-4.9881,-4.9885,-4.9892,-4.9841,-4.9924,-5.0071,-5.0087,-4.9902,-4.99,-4.9898,0,-4.9204,-4.932,-4.9413,-4.9444,-4.952,-4.9563,-4.9596,-4.9651,-4.9694,-4.9755,-4.9783,-4.9852,-4.9889,-4.9942,-4.9965,-4.9931,-5.0075,-5.0032,-5.0089,-5.0088,-5.0117,-5.0115,-5.0271,-5.0143,-5.0143,-5.0143,-5.0142,0,-4.9324,-4.9403,-4.9447,-4.9504,-4.9593,-4.9616,-4.9703,-4.9735,-4.9784,-4.9846,-4.985,-4.9908,-4.9936,-4.9998,-5.0017,-5.0105,-5.0122,-5.0137,-5.014,-5.0136,-5.0134,-5.0158,-5.0151,-5.0147,-5.0146,-5.0145,-5.0145,0,-4.942,-4.9453,-4.9554,-4.9619,-4.9637,-4.9699,-4.9754,-4.9809,-4.9837,-4.9916,-4.9936,-4.9978,-5.0052,-5.0081,-5.0171,-5.0183,-5.0286,-5.0284,-5.0267,-5.0267,-5.0323,-5.0317,-5.0499,-5.0524,-5.0381,-5.0382,-5.0383,0,-4.9493,-4.9554,-4.9627,-4.967,-4.9705,-4.9774,-4.9819,-4.9845,-4.9891,-4.9963,-5.0009,-5.0084,-5.0144,-5.0263,-5.0301,-5.037,-5.0369,-5.0429,-5.0379,-5.0373,-5.0369,-5.0365,-5.0371,-5.0437,-5.0438,-5.0439,-5.044,0,-4.962,-4.9634,-4.9699,-4.9771,-4.9825,-4.9882,-4.9938,-4.9973,-5.0007,-5.0059,-5.0136,-5.0184,-5.0277,-5.0351,-5.0423,-5.0456,-5.0454,-5.0456,-5.0473,-5.0468,-5.0455,-5.0462,-5.029,-5.0451,-5.045,-5.0449,-5.0449,-5.0448,-4.9706,-4.9761,-4.9821,-4.9894,-4.9939,-4.9992,-5.0047,-5.0082,-5.0147,-5.0226,-5.0238,-5.032,-5.0377,-5.0474,-5.0511,-5.0575,-5.0559,-5.0583,-5.0589,-5.0595,-5.0598,-5.0447,-5.0588,-5.0588,-5.0588,-5.0587,-5.0587,0,-4.9832,-4.9871,-4.9939,-5.0018,-5.0075,-5.0071,-5.0133,-5.0181,-5.0254,-5.0309,-5.0369,-5.0458,-5.053,-5.0575,-5.0648,-5.0691,-5.0692,-5.0709,-5.0705,-5.0713,-5.0609,-5.0586,-5.0707,-5.0707,-5.0707,-5.0707,-5.0707,-5.0707,-4.9904,-4.9997,-5.0018,-5.0133,-5.0172,-5.0254,-5.029,-5.0338,-5.0382,-5.0482,-5.0542,-5.0572,-5.0623,-5.07,-5.0766,-5.0777,-5.0803,-5.0822,-5.0831,-5.0733,-5.072,-5.0708,-5.0688,-5.0827,-5.0827,-5.093,-5.0931,-5.0932]},{"header":{"parameterUnit":"m.s-1","parameterCategory":1,"la1":30.2991,"la2":30.254,"lo1":-89.0895,"lo2":-89.0444,"dy":0.0017,"dx":0.0017,"nx":28,"ny":28,"refTime":"2025-04-20T03:00:00:Z","depth":0,"parameterNumber":3,"parameterNumberName":"V-component_of_WINDS"},"data":[0,0,0,0,0,0,0,0,0,0,0,0,0,0,0,0,0,0,0,0,0,0,0,0,0,0,0,0,0,0,0,0,0,0,0,0,0,0,0,0,0,0,0,0,0,0,0,0,0,0,0,0,0,0,0,0,0,0,4.1738,4.1739,0,4.1818,4.1819,4.182,4.182,4.1819,4.1818,4.1818,4.1894,4.1897,4.19,0,0,0,0,0,0,0,0,0,0,0,0,0,4.1582,4.1585,4.1738,4.1739,4.174,4.1818,4.1819,4.182,4.1821,4.1819,4.1818,4.1817,4.1893,4.1897,4.19,0,0,0,0,0,0,0,0,0,0,0,0,0,4.1654,4.1585,4.1737,4.175,4.1751,4.1818,4.1819,4.182,4.1821,4.1819,4.1818,4.1816,4.1892,4.1896,4.1901,4.1958,0,0,4.1914,4.1916,0,0,0,0,0,0,0,0,4.165,4.166,4.1747,4.1749,4.1751,4.1808,4.1792,4.1866,4.1821,4.1794,4.1817,4.1816,4.1866,4.1873,4.1891,4.1962,4.1965,4.1915,4.1917,4.1919,4.192,0,0,0,0,0,0,0,4.1645,4.1656,4.1769,4.1748,4.1751,4.175,4.1759,4.1806,4.1837,4.1797,4.1797,4.1807,4.1867,4.1887,4.1893,4.1966,4.1914,4.1918,4.1921,4.1923,4.2092,4.2093,0,0,0,0,0,0,4.1638,4.1652,4.1767,4.1772,4.1696,4.1754,4.1764,4.1791,4.1837,4.1843,4.1808,4.1806,4.188,4.1887,4.1895,4.1968,4.1919,4.1923,4.1926,4.209,4.2092,4.2094,0,0,0,0,0,0,4.1635,4.1648,4.1763,4.1712,4.1727,4.1758,4.1789,4.1793,4.1813,4.1846,4.1851,4.1822,4.1879,4.1889,4.1944,4.197,4.1925,4.1929,4.2088,4.209,4.2093,4.2112,0,0,0,0,0,0,4.163,4.1647,4.167,4.1713,4.173,4.1811,4.1791,4.1796,4.1821,4.182,4.1861,4.1866,4.1878,4.1937,4.1948,4.1976,4.1933,4.2085,4.2089,4.2092,4.2109,4.2115,4.212,0,0,0,0,0,4.1625,4.167,4.1671,4.1685,4.1759,4.1813,4.1822,4.1838,4.1823,4.1846,4.1868,4.1864,4.1966,4.1943,4.1955,4.1984,4.2084,4.2088,4.2092,4.2107,4.2114,4.212,0,0,0,0,0,0,4.1627,4.1676,4.1677,4.1738,4.1772,4.1813,4.1842,4.1844,4.1881,4.1878,4.1894,4.1903,4.1958,4.1976,4.195,4.2044,4.2023,4.203,4.203,4.2037,4.2042,4.2037,4.1937,0,0,0,0,0,4.1635,4.1676,4.1716,4.1766,4.1783,4.181,4.1834,4.1843,4.1878,4.1891,4.1916,4.1949,4.1988,4.2014,4.2051,4.2112,4.2121,4.2139,4.2144,4.2148,4.2154,4.219,4.2198,4.2107,4.2107,4.2107,0,0,4.165,4.1683,4.1707,4.1767,4.1794,4.1836,4.1821,4.1865,4.1897,4.1897,4.1952,4.1971,4.2009,4.2067,4.2094,4.2084,4.2181,4.2154,4.2157,4.216,4.2195,4.2203,4.2211,4.211,4.2109,4.2109,0,0,4.1701,4.1729,4.1775,4.1804,4.1846,4.1865,4.1876,4.1918,4.1932,4.1987,4.1989,4.2026,4.2093,4.212,4.2143,4.2208,4.2207,4.222,4.2248,4.2283,4.229,4.2296,4.2321,4.2329,4.2225,4.2225,4.2225,0,4.1715,4.178,4.1798,4.1844,4.187,4.1876,4.1923,4.1949,4.2,4.2019,4.2007,4.2094,4.2119,4.2186,4.2202,4.222,4.2233,4.2215,4.2288,4.2294,4.23,4.2324,4.2333,4.2226,4.2226,4.2226,4.2226,0,4.1795,4.184,4.1872,4.1926,4.1956,4.2001,4.2026,4.2055,4.2062,4.2082,4.2139,4.217,4.2215,4.2232,4.2238,4.23,4.2293,4.2284,4.2263,4.231,4.2333,4.2342,4.2228,4.2228,4.2228,4.2227,0,0,4.1847,4.1913,4.1924,4.195,4.1999,4.2033,4.208,4.2127,4.2152,4.2188,4.2227,4.2286,4.228,4.2306,4.2315,4.2346,4.2398,4.2334,4.2335,4.2346,4.2469,4.2476,4.2486,4.2397,4.2399,4.24,4.2467,0,4.1904,4.1989,4.2008,4.2081,4.2123,4.2131,4.2172,4.2206,4.2226,4.2264,4.2285,4.2327,4.2315,4.2331,4.2362,4.2385,4.2423,4.238,4.2434,4.2436,4.2425,4.2497,4.2503,4.2564,4.2475,4.2477,4.2478,0,4.1981,4.2023,4.21,4.2147,4.2165,4.2202,4.2248,4.2285,4.2324,4.2336,4.2367,4.2375,4.2423,4.2401,4.2468,4.2439,4.2462,4.2477,4.248,4.2485,4.246,4.2505,4.2584,4.2593,4.2492,4.249,4.2489,0,4.2013,4.2088,4.2145,4.2166,4.2221,4.2247,4.2271,4.2309,4.2337,4.2377,4.2396,4.244,4.2464,4.2498,4.2517,4.2499,4.2584,4.2562,4.2596,4.2595,4.2613,4.2611,4.2697,4.2627,4.2627,4.2627,4.2626,0,4.2074,4.2122,4.2161,4.2195,4.2249,4.2272,4.2324,4.2347,4.2382,4.2421,4.243,4.2466,4.2489,4.2529,4.2544,4.2599,4.2609,4.2621,4.2624,4.262,4.2619,4.2636,4.2632,4.2629,4.2628,4.2628,4.2628,0,4.2118,4.2146,4.2209,4.2258,4.2271,4.2309,4.235,4.2384,4.2406,4.2456,4.2468,4.2501,4.2549,4.2572,4.263,4.2641,4.2703,4.2703,4.269,4.2692,4.2724,4.2721,4.2823,4.2839,4.2758,4.2759,4.276,0,4.2156,4.2193,4.2247,4.2276,4.2301,4.2346,4.2376,4.24,4.243,4.248,4.2508,4.2557,4.2597,4.2673,4.2701,4.2747,4.2749,4.2781,4.2755,4.2751,4.275,4.2748,4.2753,4.2786,4.2787,4.2787,4.2788,0,4.222,4.2233,4.2277,4.2327,4.2363,4.2403,4.2442,4.2464,4.2494,4.2528,4.2578,4.261,4.2672,4.272,4.2768,4.2791,4.2795,4.2796,4.2807,4.2803,4.2795,4.2801,4.2704,4.2793,4.2793,4.2792,4.2792,4.2792,4.2263,4.2298,4.2342,4.2392,4.2424,4.2461,4.2497,4.2525,4.2568,4.2622,4.2632,4.2686,4.2727,4.2792,4.2817,4.2859,4.2852,4.2866,4.287,4.2873,4.2876,4.2788,4.2868,4.2868,4.2868,4.2867,4.2867,0,4.2329,4.2359,4.2404,4.246,4.25,4.2502,4.2546,4.2578,4.2627,4.2665,4.2706,4.2765,4.2813,4.2847,4.2895,4.2923,4.2926,4.2935,4.2933,4.2939,4.2879,4.2866,4.2932,4.2932,4.2932,4.2932,4.2932,4.2932,4.2368,4.2428,4.2446,4.2523,4.2552,4.2607,4.2632,4.2667,4.2698,4.2764,4.2806,4.2828,4.2865,4.2917,4.2961,4.297,4.2988,4.2997,4.3006,4.2949,4.2942,4.2936,4.2924,4.3001,4.3001,4.3062,4.3063,4.3063]}]]